Location: Sawyer Lake
(45.2517°N, 88.7550°W)
Time: 22:37:34
(UTC-05:00)

Daily predictions for brighter satellites

Satellite Brightness Start Highest point End
(mag) Time Altitude Azimuth Time Altitude Azimuth Time Altitude Azimuth
Cosmos 2074 Rocket 4.4 20:47:09 10° SSW 20:53:25 73° W 20:59:42 10° N
SL-8 R/B 4.2 20:48:39 10° W 20:53:28 65° N 20:58:16 10° ENE
Okean 2 Rocket 4.0 20:50:18 10° SSE 20:54:05 29° E 20:57:53 10° NNE
Cosmos 2084 3.1 20:52:29 10° SW 20:56:20 81° SE 21:00:11 10° NE
Cosmos 1782 Rocket 4.1 20:54:43 10° SSE 20:58:52 39° E 21:03:03 10° NNE
USA 229 DEB 4.3 20:52:42 10° NNW 20:59:38 52° NE 21:06:36 10° ESE
USA 229 4.3 20:52:49 10° NNW 20:59:44 52° NE 21:06:41 10° ESE
Cosmos 1242 Rocket 3.4 20:57:26 10° N 21:00:51 35° ENE 21:04:16 10° SE
CZ-4 DEB 3.1 20:58:05 10° S 21:01:13 67° WSW 21:04:24 10° NNW
Cosmos 1850 Rocket 4.4 20:58:33 10° NNW 21:03:46 52° ENE 21:08:59 10° SE
Cosmos 676 Rocket 4.5 21:00:11 10° NNW 21:05:20 63° WSW 21:10:30 10° S
USA 186 3.7 21:03:06 10° SSW 21:06:01 31° W 21:09:04 10° NNW
COS B Rocket 3.3 21:02:08 10° N 21:06:01 53° E 21:09:28 10° SSE
ALOS 3.9 21:02:52 10° SSW 21:07:09 36° W 21:11:28 10° NNW
Elektron 3 3.9 21:04:35 10° NW 21:07:26 73° NE 21:11:14 10° SE
Cosmos 1954 Rocket 4.2 21:02:36 10° NNW 21:07:49 77° WSW 21:13:03 10° SSE
Cosmos 1862 3.3 21:04:32 10° S 21:08:36 72° E 21:12:41 10° NNE
Sich 1 Rocket 3.9 21:04:29 10° SSW 21:09:03 77° W 21:13:39 10° N
Nadezhda 3 Rocket 4.1 21:02:47 10° N 21:09:13 84° E 21:15:35 10° S
Cosmos 1975 Rocket 3.2 21:06:50 10° N 21:11:08 58° E 21:15:24 10° SSE
DNEPR-1 R/B 3.9 21:06:03 10° NW 21:11:37 88° SW 21:16:11 10° SE
Lacrosse 5 rocket 3.1 21:12:23 10° SE 21:13:38 11° ESE 21:14:54 10° ESE
YAOGAN 6 3.7 21:10:46 10° SE 21:13:45 28° ENE 21:16:49 10° N
ARGOS 4.2 21:09:17 10° ESE 21:13:51 29° ENE 21:18:25 10° N
BREEZE-M DEB (TANK) 3.0 21:11:41 10° WSW 21:14:14 71° NNW 21:20:20 10° ENE
Cosmos 1408 2.5 21:12:33 10° S 21:16:11 75° E 21:19:50 10° NNE
Meteor 1-27 Rocket 4.0 21:12:51 10° NNW 21:18:23 69° W 21:23:50 10° S
PSLV R/B 4.0 21:16:18 12° SE 21:18:37 31° ENE 21:21:18 10° N
Cosmos 1378 Rocket 3.7 21:14:47 10° NNW 21:19:07 75° W 21:23:25 10° S
Cosmos 1023 Rocket 4.5 21:14:50 10° NNW 21:19:59 88° WSW 21:25:08 10° SSE
Gbstr 26 Del rocket 4.0 21:17:20 10° WNW 21:22:51 53° NNE 21:27:18 10° E
Cosmos 1908 Rocket 4.0 21:18:49 10° SSW 21:23:13 69° W 21:27:41 10° N
AVUM R/B 4.5 21:20:22 10° N 21:23:34 32° NE 21:26:05 14° ESE
CZ-4 SHROUD 3.9 21:23:31 14° SE 21:25:51 38° ENE 21:28:46 10° N
Cosmos 1741 Rocket 4.0 21:20:48 10° NNW 21:26:04 77° ENE 21:31:03 11° SSE
Nimbus 7 Rocket 4.4 21:22:32 10° NNE 21:28:28 64° ESE 21:34:24 10° S
MetOp-A 4.2 21:31:18 11° SSE 21:36:30 72° ENE 21:41:51 10° N
Cosmos 614 Rocket 3.9 21:33:33 10° NNW 21:38:40 89° ENE 21:43:08 13° SSE
Cosmos 1825 3.0 21:36:08 10° SSW 21:39:52 54° W 21:43:39 10° N
deb Chang Zheng 4 3.7 21:36:01 10° NNE 21:40:27 84° WNW 21:44:55 10° SSW
Cosmos 1833 Rocket 2.8 21:35:09 10° NNW 21:40:45 64° ENE 21:45:06 17° SE
Envisat 3.4 21:36:12 10° S 21:41:14 65° WSW 21:46:19 10° NNW
Cosmos 2341 Rocket 4.2 21:37:03 10° SSW 21:43:21 77° W 21:49:37 10° N
SL-8 Rocket 4.0 21:40:07 10° S 21:46:20 70° E 21:52:31 10° NNE
Terra 3.3 21:44:32 15° ESE 21:47:14 23° ENE 21:50:59 10° NNE
USA 245 3.5 21:46:36 20° SE 21:49:01 59° ENE 21:53:31 10° N
ISS -2.2 21:46:08 10° W 21:49:17 45° NNW 21:52:27 10° NE
ERS-1 Rocket 4.3 21:45:38 10° SSW 21:50:15 37° W 21:54:56 10° NNW
Cosmos 2278 Rocket 2.9 21:45:14 10° SW 21:50:49 57° WNW 21:56:26 10° NNE
H-2A R/B 2.9 21:47:26 10° S 21:51:33 47° W 21:55:37 10° NNW
Cosmos 1420 Rocket 4.3 21:49:45 10° SSW 21:54:58 69° WNW 22:00:11 10° NNE
Cosmos 1140 Rocket 4.5 21:50:41 10° NNW 21:55:33 43° WSW 22:00:24 10° S
Cosmos 1939 Rocket 4.4 21:52:12 10° SSW 21:55:44 32° W 21:59:19 10° NNW
Abrixas 2.9 21:54:24 10° SW 21:57:17 40° SSE 21:58:22 28° ESE
APEX 4.1 21:56:17 10° SW 22:00:26 68° WNW 22:05:57 10° NNE
Cosmos 2151 Rocket 3.6 21:56:55 14° S 22:00:43 65° E 22:05:13 10° NNE
Meteor 1-25 Rocket 4.5 21:58:34 15° SSE 22:03:17 54° E 22:08:56 10° NNE
CZ-4B R/B 3.4 21:59:42 10° NNE 22:04:35 59° ESE 22:08:19 16° S
Cosmos 1300 Rocket 4.5 22:04:46 25° SE 22:06:17 32° E 22:10:14 10° NNE
SPOT 5 3.7 22:02:47 10° S 22:07:59 54° W 22:13:15 10° NNW
Cosmos 2082 Rocket 2.5 22:03:06 10° NNW 22:08:45 65° WSW 22:12:49 19° S
Okean 1 3.9 22:05:14 10° N 22:09:08 42° ENE 22:10:39 29° SE
Cosmos 1812 2.9 22:09:57 10° N 22:13:47 56° E 22:15:11 34° SE
NOSS 8 (F) 4.4 22:10:48 10° SSW 22:14:16 78° SE 22:18:02 10° NE
Okean 1 Rocket 3.9 22:13:53 28° SE 22:15:09 34° E 22:19:11 10° NNE
Cosmos 864 Rocket 4.4 22:09:39 12° S 22:15:23 79° E 22:21:34 10° N
Lacrosse 5 2.3 22:14:53 10° SSW 22:19:32 37° SE 22:24:13 10° ENE
Genesis I 4.1 22:21:07 30° ESE 22:21:07 30° ESE 22:24:18 10° NE
H-2A R/B 2.3 22:20:50 28° SE 22:23:34 60° ENE 22:28:45 10° N
Meteor 1-18 Rocket 4.4 22:18:40 10° NNW 22:24:37 80° W 22:28:36 22° S
Cosmos 2366 rocket 4.1 22:22:17 10° S 22:28:35 80° W 22:34:59 10° N
Cosmos 2297 4.4 22:24:01 10° SW 22:29:37 55° WNW 22:35:16 10° NNE
NOAA 11 4.4 22:28:28 22° S 22:32:05 66° WSW 22:37:36 10° NNW
Okean 1-7 Rocket 3.8 22:29:09 10° N 22:33:35 57° ENE 22:34:56 39° SE
Cosmos 1302 Rocket 4.4 22:32:20 33° SSE 22:34:06 45° ESE 22:39:07 10° NNE
SL-8 R/B 4.0 22:31:35 10° WNW 22:36:24 64° N 22:39:35 21° E
SPOT 1/Viking Rocket 4.3 22:35:56 19° SSW 22:39:26 48° W 22:44:30 10° NNW
Meteor 1-13 Rocket 4.4 22:35:18 10° N 22:41:15 66° ENE 22:43:51 34° SSE
ASTEX 1 3.7 22:38:14 10° NNE 22:43:05 50° E 22:44:25 39° SE
Cosmos 1633 4.2 22:44:52 22° ENE 22:44:52 22° ENE 22:47:11 10° NE
Iridium 4 Rocket 4.4 22:41:55 10° N 22:47:32 42° E 22:49:23 33° ESE
Cosmos 1315 Rocket 4.4 22:51:14 21° ENE 22:51:14 21° ENE 22:53:35 10° NE
CARTOSAT-1 3.5 22:49:49 48° SSE 22:51:01 88° W 22:55:21 10° NNW
Lacrosse 5 rocket 0.9 22:48:26 10° SW 22:52:20 85° SE 22:56:05 10° NE
ARGOS 4.1 22:50:37 20° SSW 22:53:55 42° W 22:59:00 10° NNW
CZ-4 R/B 4.3 22:51:36 10° N 22:56:12 59° WNW 22:59:17 20° SW
Cosmos 2369 Rocket 2.7 22:55:52 37° ESE 22:56:29 38° ESE 23:01:39 10° NE
Meteor 1-11 Rocket 3.8 22:56:17 39° SSE 22:58:20 62° E 23:04:01 10° NNE
Cosmos 2084 Rocket 3.8 22:55:29 10° NNW 22:59:16 47° NE 22:59:57 42° ENE
Cosmos 1000 Rocket 4.4 22:53:25 10° N 22:59:43 81° E 23:02:20 38° SSE
Cosmos 2239 Rocket 4.5 23:05:01 38° SSE 23:07:30 70° E 23:13:47 10° NNE
NOSS 3-1 (A) 4.0 23:01:33 10° NW 23:09:06 89° NE 23:12:57 36° SE
IGS 5A 3.7 23:09:05 52° SSW 23:09:49 63° W 23:13:58 10° NNW
Gbstr 26 Del rocket 3.4 23:05:04 10° WNW 23:09:51 47° SW 23:10:03 47° SSW
Okean 2 4.3 23:06:06 10° N 23:09:59 36° ENE 23:10:02 36° ENE
SAR-Lupe-2 3.5 23:11:54 82° NW 23:11:54 82° NW 23:15:23 10° NNW
CZ-4C R/B 4.5 23:11:59 32° SW 23:12:57 37° W 23:16:53 10° NNW
Cosmos 1503 Rocket 3.9 23:09:51 10° NNW 23:15:08 83° ENE 23:16:23 54° SSE
Cosmos 1892 Rocket 3.8 23:12:16 10° N 23:16:34 53° ENE 23:16:48 52° E
Meteor 1-23 Rocket 4.2 23:12:01 10° N 23:17:35 66° ENE 23:18:55 49° SE
Cosmos 1400 Rocket 2.7 23:19:55 83° SSE 23:20:03 87° E 23:24:13 10° NNE
Cosmos 1943 Rocket 3.4 23:21:42 25° E 23:21:42 25° E 23:25:32 10° NE
CZ-4B R/B 4.1 23:23:18 11° NE 23:23:18 11° NE 23:23:41 10° NE
Meteor 1-19 Rocket 4.3 23:17:29 10° NNW 23:23:21 79° W 23:25:07 47° S
Terra 2.6 23:23:26 36° SW 23:24:42 44° W 23:29:17 10° NNW
Cosmos 1536 2.8 23:25:09 76° NE 23:25:09 76° NE 23:28:56 10° N
ISS -1.1 23:23:27 10° WNW 23:26:14 25° N 23:27:59 16° NE
Spot 2 3.8 23:23:11 10° NNE 23:27:29 85° WNW 23:27:44 78° SW
Cosmos 1025 Rocket 3.0 23:24:07 10° NNW 23:28:32 75° W 23:28:53 69° SW
ATLAS 2AS CENTAUR R/B 3.4 23:22:06 10° NW 23:30:09 58° NE 23:34:23 29° ESE
Meteor 2-16 Rocket 4.3 23:32:56 50° S 23:34:37 78° E 23:40:44 10° NNE
Meteor 2-21 Rocket 4.4 23:33:02 44° SSW 23:35:12 86° W 23:41:28 10° N
NOSS 3-1 (C) 4.3 23:30:07 10° NW 23:37:29 55° WSW 23:40:23 38° S
Meteor 1-5 Rocket 4.2 23:37:52 54° ESE 23:38:17 56° E 23:43:29 10° NNE
USA 234 3.2 23:36:24 10° NE 23:42:53 64° SE 23:45:22 39° SSW
Cosmos 1455 Rocket 3.4 23:44:16 54° ENE 23:44:16 54° ENE 23:48:05 10° NNE
Cosmos 1821 Rocket 4.2 23:42:00 38° SSW 23:44:30 68° W 23:50:42 10° N
Cosmos 1605 Rocket 4.0 23:43:43 52° SSE 23:45:21 75° E 23:51:46 10° NNE
Cosmos 1354 Rocket 4.5 23:45:04 10° NNW 23:50:08 48° WSW 23:50:52 45° SW
Cosmos 1934 Rocket 4.0 23:49:38 44° SSW 23:51:35 71° W 23:57:40 10° N
Cosmos 44 Rocket 3.9 23:47:23 10° NNW 23:52:25 50° NE 23:53:21 44° E
